Location: Unspecified
(50.7693°N, 0.0000°E)
Time: 20:55:17
(UTC+00:00)

Transit 4A - Pass Details

Date: 25 June 2019
Orbit: 862 x 982 km, 66.8° (Epoch: 21 July)

Event Time Altitude Azimuth Distance (km) Brightness Sun altitude
Rises 05:58:13 0° 158° (SSE) 3,618 11.1 17.2°
Reaches altitude 10° 06:01:44 10° 139° (SE) 2,697 10.8 17.8°
Maximum altitude 06:05:26 16° 102° (ESE) 2,286 11.3 18.3°
Drops below altitude 10° 06:09:10 10° 66° (ENE) 2,736 12.5 18.9°
Sets 06:12:45 0° 47° (NE) 3,695 12.1 19.5°
